Oujda/Angades, Morocco

7:49 PM WET on December 06, 2016 (GMT +0000)
Angads

Weather History for GMFO - October, 2012

Change the Weather History Date:

Friday, October 19, 2012

  Actual Average Record
Temperature  
Mean Temperature 67 °F -  
Max Temperature 75 °F 77 °F 95 °F (2014)
Min Temperature 59 °F 54 °F 48 °F (2000)
Cooling Degree Days 2    
Growing Degree Days 17 (Base 50)    
Moisture  
Dew Point 58 °F    
Average Humidity 84    
Maximum Humidity 100    
Minimum Humidity 41    
Precipitation  
Precipitation 0.00 in - - ()
Sea Level Pressure  
Sea Level Pressure 29.84 in    
Wind  
Wind Speed 9 mph ()    
Max Wind Speed 22 mph    
Max Gust Speed 21 mph    
Visibility 4.4 miles    
Events Rain , Thunderstorm    
Averages and records for this station are not official NWS values.
T = Trace of Precipitation, MM = Missing Value Source: Averaged Metar Reports

Daily Weather History Graph

Daily Weather History Graph

Search for Another Location

Airport or City:

Trip Planner

Search our weather history database for the weather conditions in past years. The results will help you decide how hot, cold, wet, or windy it might be!

Date:

Astronomy

Oct. 19, 2012 Rise Set
Actual Time 6:17 AM WET 5:27 PM WET
Civil Twilight 5:51 AM WET 5:53 PM WET
Nautical Twilight 5:22 AM WET 6:22 PM WET
Astronomical Twilight 4:52 AM WET 6:51 PM WET
Moon 10:37 AM WET (10/19) 8:58 PM WET (10/19)
Length of Visible Light 12h 01m
Length of Day
11h 10m
Waxing Crescent, 22% of the Moon is Illuminated
Oct 19
Waxing Crescent
Oct 22
First Quarter
Oct 29
Full
Nov 7
Last Quarter
Nov 13
New

Hourly Weather History & Observations

Time (WET) Temp. Dew Point Humidity Pressure Visibility Wind Dir Wind Speed Gust Speed Precip Events Conditions
12:00 AM 75.2 °F 50.0 °F 41% 29.74 in 3.7 mi SW 21.9 mph - N/A   Scattered Clouds
2:00 AM 68.0 °F 57.2 °F 68% 29.77 in 3.7 mi Variable 6.9 mph 20.7 mph N/A   Scattered Clouds
3:00 AM 61 °F 57 °F 84% 29.79 in 2 mi NW 16.1 mph - -   Partly Cloudy
3:00 AM 60.8 °F 57.2 °F 88% 29.83 in 1.7 mi NW 16.1 mph - N/A   Scattered Clouds
5:00 AM 60.8 °F 55.4 °F 82% 29.83 in 1.9 mi North 8.1 mph - N/A   Scattered Clouds
6:00 AM 60.8 °F 55.4 °F 82% 29.83 in 1.9 mi NW 3.5 mph - N/A   Mostly Cloudy
7:00 AM 60.8 °F 55.4 °F 82% 29.83 in 6.2 mi Calm Calm - N/A   Mostly Cloudy
8:00 AM 62.6 °F 55.4 °F 77% 29.86 in 6.2 mi Variable 2.3 mph - N/A   Mostly Cloudy
9:00 AM 64 °F 56 °F 68% 29.84 in 6 mi ESE 6.9 mph - -   Scattered Clouds
9:00 AM 64.4 °F 55.4 °F 73% 29.86 in 6.2 mi ESE 6.9 mph - N/A   Mostly Cloudy
11:00 AM 68.0 °F 57.2 °F 68% 29.86 in 6.2 mi ESE 3.5 mph - N/A   Scattered Clouds
12:00 PM 70 °F 58 °F 56% 29.78 in 9 mi East 4.6 mph - -   Scattered Clouds
12:00 PM 69.8 °F 57.2 °F 64% 29.83 in 6.2 mi East 4.6 mph - N/A   Mostly Cloudy
2:00 PM 68.0 °F 59.0 °F 73% 29.80 in 6.2 mi North 16.1 mph - N/A   Scattered Clouds
2:06 PM 66.2 °F 60.8 °F 83% 29.80 in 5.0 mi North 15.0 mph - N/A Thunderstorm Thunderstorm
2:12 PM 66.2 °F 60.8 °F 83% 29.80 in 5.0 mi North 12.7 mph - N/A Rain , Thunderstorm Light Thunderstorms and Rain
3:00 PM 63 °F 59 °F 84% 29.78 in 5 mi North 12.7 mph - - Rain , Thunderstorm Thunderstorms and Rain
3:00 PM 62.6 °F 59.0 °F 88% 29.80 in 5.0 mi North 12.7 mph - N/A Rain Light Rain
4:14 PM 60.8 °F 59.0 °F 94% 29.83 in 3.1 mi NW 17.3 mph - N/A Rain , Thunderstorm Thunderstorms and Rain
4:41 PM 60.8 °F 59.0 °F 94% 29.80 in 5.0 mi North 12.7 mph - N/A   Mostly Cloudy
5:00 PM 60.8 °F 59.0 °F 94% 29.80 in 5.0 mi North 12.7 mph - N/A   Mostly Cloudy
6:00 PM 60 °F 59 °F 94%  in 3 mi North 11.5 mph - -   Overcast
6:00 PM 59.0 °F 59.0 °F 100% 29.86 in 3.1 mi North 11.5 mph - N/A Rain , Thunderstorm Thunderstorms and Rain
8:00 PM 59.0 °F 59.0 °F 100% 29.86 in 3.7 mi NNE 11.5 mph - N/A Rain Rain
8:52 PM 59.0 °F 59.0 °F 100% 29.92 in 3.7 mi NNE 6.9 mph - N/A Rain , Thunderstorm Light Thunderstorms and Rain
9:00 PM 59 °F 59 °F 100% 29.89 in 4 mi NNE 5.8 mph - - Rain , Thunderstorm Thunderstorms and Rain
9:00 PM 59.0 °F 59.0 °F 100% 29.92 in 3.7 mi NNE 5.8 mph - N/A Rain , Thunderstorm Light Thunderstorms and Rain
9:20 PM 59.0 °F 59.0 °F 100% 29.95 in 2.5 mi NW 9.2 mph - N/A Rain , Thunderstorm Thunderstorms and Rain
10:00 PM 59.0 °F 59.0 °F 100% 29.92 in 2.5 mi Variable 2.3 mph - N/A Rain , Thunderstorm Thunderstorms and Rain
11:00 PM 59.0 °F 59.0 °F 100% 29.89 in 5.0 mi NNE 5.8 mph - N/A   Partly Cloudy